Hayden, CO

11:00 AM MST on December 07, 2016 (GMT -0700)
Yampa Valley

Weather History for KHDN - August, 2013

Change the Weather History Date:

Wednesday, August 14, 2013

  Actual Average Record
Temperature  
Mean Temperature 64 °F -  
Max Temperature 82 °F 81 °F 94 °F (1962)
Min Temperature 46 °F 47 °F 36 °F (1968)
Degree Days  
Heating Degree Days 1    
Growing Degree Days 14 (Base 50)    
Moisture  
Dew Point 39 °F    
Average Humidity 50    
Maximum Humidity 87    
Minimum Humidity 15    
Precipitation  
Precipitation 0.00 in - - ()
Sea Level Pressure  
Sea Level Pressure 30.32 in    
Wind  
Wind Speed 10 mph (ESE)    
Max Wind Speed 23 mph    
Max Gust Speed 33 mph    
Visibility 10 miles    
Events      
Averages and records for this station are not official NWS values.
T = Trace of Precipitation, MM = Missing Value Source: NWS Daily Summary

Daily Weather History Graph

Daily Weather History Graph

Search for Another Location

Airport or City:

Trip Planner

Search our weather history database for the weather conditions in past years. The results will help you decide how hot, cold, wet, or windy it might be!

Date:

Astronomy

Aug. 14, 2013 Rise Set
Actual Time 6:18 AM MDT 8:07 PM MDT
Civil Twilight 5:49 AM MDT 8:36 PM MDT
Nautical Twilight 5:13 AM MDT 9:12 PM MDT
Astronomical Twilight 4:35 AM MDT 9:50 PM MDT
Moon 2:22 PM MDT (8/14) No Moon Set
Length of Visible Light 14h 46m
Length of Day
13h 48m
First Quarter, 53% of the Moon is Illuminated
Aug 14
First Quarter
Aug 20
Full
Aug 28
Last Quarter
Sep 5
New
Sep 12
First Quarter

Hourly Weather History & Observations

Time (MDT) Temp. Windchill Dew Point Humidity Pressure Visibility Wind Dir Wind Speed Gust Speed Precip Events Conditions
12:15 AM 53.6 °F - 46.4 °F 77% 30.36 in 10.0 mi SSE 15.0 mph 18.4 mph N/A   Clear
12:35 AM 53.6 °F - 46.4 °F 77% 30.36 in 10.0 mi ESE 15.0 mph - N/A   Clear
12:55 AM 53.6 °F - 46.4 °F 77% 30.35 in 10.0 mi ESE 13.8 mph - N/A   Clear
1:15 AM 53.6 °F - 46.4 °F 77% 30.35 in 10.0 mi East 10.4 mph - N/A   Clear
1:35 AM 51.8 °F - 46.4 °F 82% 30.35 in 10.0 mi East 9.2 mph - N/A   Clear
1:55 AM 51.8 °F - 46.4 °F 82% 30.34 in 10.0 mi East 9.2 mph - N/A   Clear
2:15 AM 51.8 °F - 44.6 °F 76% 30.34 in 10.0 mi ESE 11.5 mph - N/A   Clear
2:35 AM 51.8 °F - 44.6 °F 76% 30.35 in 10.0 mi East 16.1 mph - N/A   Clear
2:55 AM 50.0 °F - 44.6 °F 82% 30.35 in 10.0 mi ESE 11.5 mph - N/A   Clear
3:15 AM 48.2 °F - 44.6 °F 87% 30.35 in 10.0 mi SE 11.5 mph - N/A   Clear
3:35 AM 48.2 °F - 44.6 °F 87% 30.35 in 10.0 mi SE 11.5 mph - N/A   Clear
3:55 AM 48.2 °F - 44.6 °F 87% 30.35 in 10.0 mi ESE 9.2 mph - N/A   Clear
4:15 AM 48.2 °F - 42.8 °F 82% 30.36 in 10.0 mi ESE 8.1 mph - N/A   Clear
4:35 AM 48.2 °F - 44.6 °F 87% 30.35 in 10.0 mi ESE 12.7 mph - N/A   Clear
4:55 AM 48.2 °F - 44.6 °F 87% 30.35 in 10.0 mi East 16.1 mph - N/A   Clear
5:15 AM 48.2 °F - 42.8 °F 82% 30.35 in 10.0 mi ESE 10.4 mph - N/A   Clear
5:35 AM 46.4 °F 41.9 °F 42.8 °F 87% 30.36 in 10.0 mi ESE 9.2 mph - N/A   Clear
5:55 AM 46.4 °F 42.4 °F 41.0 °F 81% 30.35 in 10.0 mi ESE 8.1 mph - N/A   Clear
6:15 AM 46.4 °F 41.9 °F 41.0 °F 81% 30.36 in 10.0 mi ESE 9.2 mph - N/A   Clear
6:35 AM 46.4 °F 42.4 °F 42.8 °F 87% 30.36 in 10.0 mi ESE 8.1 mph - N/A   Clear
6:55 AM 48.2 °F - 42.8 °F 82% 30.36 in 10.0 mi ESE 11.5 mph - N/A   Clear
7:15 AM 48.2 °F - 42.8 °F 82% 30.37 in 10.0 mi ESE 11.5 mph - N/A   Clear
7:35 AM 48.2 °F - 42.8 °F 82% 30.37 in 10.0 mi SE 9.2 mph - N/A   Clear
7:55 AM 51.8 °F - 42.8 °F 71% 30.37 in 10.0 mi ESE 9.2 mph - N/A   Clear
8:15 AM 51.8 °F - 42.8 °F 71% 30.37 in 10.0 mi ESE 6.9 mph - N/A   Clear
8:35 AM 53.6 °F - 44.6 °F 72% 30.37 in 10.0 mi ESE 8.1 mph - N/A   Clear
8:55 AM 55.4 °F - 44.6 °F 67% 30.37 in 10.0 mi ESE 10.4 mph - N/A   Clear
9:15 AM 57.2 °F - 44.6 °F 63% 30.36 in 10.0 mi ESE 9.2 mph - N/A   Clear
9:35 AM 57.2 °F - 44.6 °F 63% 30.36 in 10.0 mi ESE 9.2 mph - N/A   Clear
9:55 AM 60.8 °F - 44.6 °F 55% 30.36 in 10.0 mi SE 9.2 mph - N/A   Clear
10:15 AM 62.6 °F - 44.6 °F 52% 30.36 in 10.0 mi East 9.2 mph - N/A   Clear
10:35 AM 64.4 °F - 46.4 °F 52% 30.36 in 10.0 mi ESE 8.1 mph - N/A   Clear
10:55 AM 66.2 °F - 46.4 °F 49% 30.35 in 10.0 mi East 5.8 mph - N/A   Clear
11:15 AM 68.0 °F - 42.8 °F 40% 30.35 in 10.0 mi East 4.6 mph - N/A   Clear
11:35 AM 69.8 °F - 42.8 °F 38% 30.35 in 10.0 mi SE 4.6 mph - N/A   Clear
11:55 AM 71.6 °F - 39.2 °F 31% 30.34 in 10.0 mi ESE 3.5 mph - N/A   Clear
12:15 PM 71.6 °F - 39.2 °F 31% 30.34 in 10.0 mi NNE 4.6 mph - N/A   Clear
12:35 PM 73.4 °F - 39.2 °F 29% 30.32 in 10.0 mi NNW 6.9 mph - N/A   Clear
12:55 PM 75.2 °F - 37.4 °F 25% 30.32 in 10.0 mi WNW 5.8 mph - N/A   Clear
1:55 PM 78.8 °F - 37.4 °F 23% 30.29 in 10.0 mi West 12.7 mph 18.4 mph N/A   Clear
2:15 PM 78.8 °F - 35.6 °F 21% 30.28 in 10.0 mi West 11.5 mph 19.6 mph N/A   Clear
2:35 PM 80.6 °F - 33.8 °F 18% 30.28 in 10.0 mi NW 8.1 mph 20.7 mph N/A   Clear
2:55 PM 80.6 °F - 33.8 °F 18% 30.27 in 10.0 mi WNW 6.9 mph 18.4 mph N/A   Clear
3:15 PM 80.6 °F - 32.0 °F 17% 30.26 in 10.0 mi NW 5.8 mph - N/A   Clear
3:35 PM 80.6 °F - 30.2 °F 16% 30.25 in 10.0 mi WNW 9.2 mph - N/A   Clear
3:55 PM 80.6 °F - 28.4 °F 15% 30.25 in 10.0 mi West 11.5 mph 19.6 mph N/A   Clear
4:15 PM 82.4 °F - 30.2 °F 15% 30.25 in 10.0 mi West 9.2 mph - N/A   Clear
4:35 PM 78.8 °F - 30.2 °F 17% 30.25 in 10.0 mi West 12.7 mph - N/A   Clear
4:55 PM 78.8 °F - 28.4 °F 16% 30.25 in 10.0 mi Calm Calm - N/A   Clear
5:15 PM 75.2 °F - 28.4 °F 18% 30.27 in 10.0 mi NW 23.0 mph 33.4 mph N/A   Partly Cloudy
5:35 PM 75.2 °F - 30.2 °F 19% 30.27 in 10.0 mi WNW 18.4 mph 25.3 mph N/A   Clear
5:55 PM 73.4 °F - 28.4 °F 19% 30.29 in 10.0 mi NW 15.0 mph 26.5 mph N/A   Clear
6:15 PM 73.4 °F - 30.2 °F 20% 30.26 in 10.0 mi Calm Calm - N/A   Clear
6:35 PM 73.4 °F - 30.2 °F 20% 30.26 in 10.0 mi Calm Calm - N/A   Clear
6:55 PM 75.2 °F - 30.2 °F 19% 30.25 in 10.0 mi West 3.5 mph - N/A   Clear
7:15 PM 73.4 °F - 32.0 °F 22% 30.25 in 10.0 mi Calm Calm - N/A   Clear
7:35 PM 73.4 °F - 32.0 °F 22% 30.25 in 10.0 mi Calm Calm - N/A   Clear
7:55 PM 71.6 °F - 33.8 °F 25% 30.25 in 10.0 mi Calm Calm - N/A   Clear
8:15 PM 71.6 °F - 30.2 °F 22% 30.26 in 10.0 mi SSE 4.6 mph - N/A   Clear
8:35 PM 64.4 °F - 37.4 °F 37% 30.26 in 10.0 mi ENE 9.2 mph - N/A   Clear
8:55 PM 62.6 °F - 35.6 °F 37% 30.27 in 10.0 mi ENE 5.8 mph - N/A   Clear
9:15 PM 60.8 °F - 35.6 °F 39% 30.27 in 10.0 mi SE 11.5 mph - N/A   Clear
9:35 PM 60.8 °F - 35.6 °F 39% 30.28 in 10.0 mi SE 8.1 mph - N/A   Clear
9:55 PM 64.4 °F - 33.8 °F 32% 30.29 in 10.0 mi East 6.9 mph - N/A   Clear
10:15 PM 60.8 °F - 33.8 °F 36% 30.28 in 10.0 mi ESE 8.1 mph - N/A   Clear
10:35 PM 60.8 °F - 33.8 °F 36% 30.28 in 10.0 mi East 6.9 mph - N/A   Clear
10:55 PM 57.2 °F - 33.8 °F 41% 30.29 in 10.0 mi SE 9.2 mph - N/A   Clear
11:15 PM 55.4 °F - 33.8 °F 44% 30.29 in 10.0 mi ESE 5.8 mph - N/A   Clear
11:35 PM 55.4 °F - 33.8 °F 44% 30.29 in 10.0 mi ESE 8.1 mph - N/A   Clear
11:55 PM 55.4 °F - 35.6 °F 47% 30.29 in 10.0 mi ESE 11.5 mph - N/A   Clear